Currently 73°F in Simi Valley, California, USA
73°F
78°F / 54°F
6 mph W
0.00"
Tuesday, September 25, 2018 5:50 PM PDT

Simi Valley, California Climate Summary
Typical February Day

Normal High:    69.6°F (20.9°C)
Normal Low:    47.6°F (8.6°C)
Average:    57.6°F (14.2°C)

Hour    Temperature    Wind Speed    Humidity
12:00 AM    52°F (11°C)    3 mph    63%
1:00 AM    52°F (11°C)    3 mph    64%
2:00 AM    52°F (11°C)    3 mph    64%
3:00 AM    51°F (11°C)    3 mph    64%
4:00 AM    51°F (11°C)    3 mph    64%
5:00 AM    51°F (10°C)    3 mph    64%
6:00 AM    50°F (10°C)    3 mph    64%
7:00 AM    50°F (10°C)    3 mph    65%
8:00 AM    53°F (12°C)    3 mph    63%
9:00 AM    57°F (14°C)    3 mph    58%
10:00 AM    62°F (17°C)    4 mph    51%
11:00 AM    65°F (18°C)    4 mph    46%
12:00 PM    67°F (19°C)    4 mph    42%
1:00 PM    68°F (20°C)    4 mph    40%
2:00 PM    68°F (20°C)    5 mph    41%
3:00 PM    67°F (20°C)    5 mph    44%
4:00 PM    66°F (19°C)    5 mph    47%
5:00 PM    64°F (18°C)    4 mph    50%
6:00 PM    61°F (16°C)    3 mph    55%
7:00 PM    58°F (15°C)    3 mph    59%
8:00 PM    56°F (13°C)    2 mph    61%
9:00 PM    55°F (13°C)    3 mph    62%
10:00 PM    54°F (12°C)    3 mph    63%
11:00 PM    53°F (12°C)    3 mph    64%
 

The Simi Valley, California weather pages are a service of WeatherCurrents.
Copyright ©Tue Sep 25 17:51:03 PDT 2018  WeatherCurrents. All rights reserved. - Submit questions and comments - Privacy Policy